timestamp,wind_dir_avg,wind_spd_avg,wind_spd_max_dir,wind_spd_gust,battery_voltage,lat,long
2023-04-10 00:04:00+00:00,302.0,8.82,300.0,11.12,12.49,47.59359,-54.27349
2023-04-10 00:14:00+00:00,297.0,9.91,293.0,14.23,12.33,47.59359,-54.27349
2023-04-10 00:24:00+00:00,292.0,10.19,286.0,14.57,12.33,47.59359,-54.27349
2023-04-10 00:34:00+00:00,298.0,11.5,292.0,14.96,12.33,47.59359,-54.27349
2023-04-10 00:44:00+00:00,299.0,8.77,296.0,11.2,12.33,47.59359,-54.27349
2023-04-10 00:54:00+00:00,280.0,10.33,277.0,14.73,12.33,47.59359,-54.27349
2023-04-10 01:04:00+00:00,286.0,8.01,294.0,9.16,12.33,47.59359,-54.27349
2023-04-10 01:14:00+00:00,296.0,7.98,300.0,9.58,12.25,47.59359,-54.27349
2023-04-10 01:24:00+00:00,300.0,8.38,306.0,9.39,12.25,47.59359,-54.27349
2023-04-10 01:34:00+00:00,304.0,7.93,309.0,9.71,12.25,47.59359,-54.27349
2023-04-10 01:44:00+00:00,277.0,7.17,271.0,8.53,12.25,47.59359,-54.27349
2023-04-10 01:54:00+00:00,277.0,7.73,286.0,8.68,12.25,47.59359,-54.27349
2023-04-10 02:04:00+00:00,273.0,7.56,269.0,8.39,12.25,47.59359,-54.27349
2023-04-10 02:14:00+00:00,268.0,7.32,264.0,8.32,12.17,47.59359,-54.27349
2023-04-10 02:24:00+00:00,259.0,6.15,268.0,8.03,12.17,47.59359,-54.27349
2023-04-10 02:34:00+00:00,268.0,6.63,267.0,7.46,12.17,47.59359,-54.27349
2023-04-10 02:44:00+00:00,254.0,4.99,263.0,7.23,12.17,47.59359,-54.27349
2023-04-10 02:54:00+00:00,256.0,4.55,255.0,6.25,12.17,47.59359,-54.27349
2023-04-10 03:04:00+00:00,264.0,5.38,273.0,7.38,12.17,47.59359,-54.27349
2023-04-10 03:14:00+00:00,269.0,4.79,276.0,6.25,12.17,47.59359,-54.27349
2023-04-10 03:24:00+00:00,255.0,5.63,259.0,7.51,12.17,47.59359,-54.27349
2023-04-10 03:34:00+00:00,232.0,4.92,233.0,5.89,12.17,47.59359,-54.27349
2023-04-10 03:44:00+00:00,217.0,5.12,228.0,8.19,12.17,47.59359,-54.27349
2023-04-10 03:54:00+00:00,226.0,5.12,241.0,7.93,12.17,47.59359,-54.27349
2023-04-10 04:04:00+00:00,208.0,4.68,232.0,5.6,12.17,47.59359,-54.27349
2023-04-10 04:14:01+00:00,219.0,4.47,242.0,6.56,12.17,47.59359,-54.27349
2023-04-10 04:24:01+00:00,237.0,5.23,247.0,8.45,12.17,47.59359,-54.27349
2023-04-10 04:34:01+00:00,245.0,5.87,244.0,8.32,12.17,47.59359,-54.27349
2023-04-10 04:44:01+00:00,248.0,6.8,251.0,8.72,12.17,47.59359,-54.27349
2023-04-10 04:54:01+00:00,236.0,6.48,247.0,8.58,12.17,47.59359,-54.27349
2023-04-10 05:04:01+00:00,235.0,4.35,246.0,6.72,12.17,47.59359,-54.27349
2023-04-10 05:14:00+00:00,218.0,4.96,240.0,7.08,12.17,47.59359,-54.27349
2023-04-10 05:24:00+00:00,234.0,6.03,243.0,8.97,12.17,47.59359,-54.27349
2023-04-10 05:34:00+00:00,242.0,5.7,253.0,7.41,12.17,47.59359,-54.27349
2023-04-10 05:44:00+00:00,243.0,6.03,254.0,6.89,12.17,47.59359,-54.27349
2023-04-10 05:54:00+00:00,247.0,7.21,249.0,8.42,12.17,47.59359,-54.27349
2023-04-10 06:04:00+00:00,248.0,9.76,244.0,10.89,12.17,47.59359,-54.27349
2023-04-10 06:14:00+00:00,249.0,10.84,248.0,11.96,12.09,47.59359,-54.27349
2023-04-10 06:24:00+00:00,244.0,9.34,240.0,10.14,12.09,47.59359,-54.27349
2023-04-10 06:34:00+00:00,241.0,9.65,234.0,11.14,12.09,47.59359,-54.27349
2023-04-10 06:44:00+00:00,236.0,9.01,234.0,10.18,12.09,47.59359,-54.27349
2023-04-10 06:54:00+00:00,229.0,8.67,232.0,10.2,12.09,47.59359,-54.27349
2023-04-10 07:04:00+00:00,233.0,9.17,234.0,10.36,12.09,47.59359,-54.27349
2023-04-10 07:14:00+00:00,236.0,8.97,234.0,10.09,12.09,47.59359,-54.27349
2023-04-10 07:24:00+00:00,235.0,10.94,233.0,12.35,12.09,47.59359,-54.27349
2023-04-10 07:34:00+00:00,236.0,9.2,236.0,11.99,12.09,47.59359,-54.27349
2023-04-10 07:44:00+00:00,236.0,11.0,243.0,12.31,12.09,47.59359,-54.27349
2023-04-10 07:54:00+00:00,237.0,11.25,236.0,12.64,12.09,47.59359,-54.27349
2023-04-10 08:04:00+00:00,228.0,9.7,228.0,11.87,12.09,47.59359,-54.27349
2023-04-10 08:14:00+00:00,230.0,11.9,233.0,13.78,12.09,47.59359,-54.27349
2023-04-10 08:24:00+00:00,232.0,10.28,234.0,13.0,12.09,47.59359,-54.27349
2023-04-10 08:34:00+00:00,229.0,9.66,234.0,11.7,12.09,47.59359,-54.27349
2023-04-10 08:44:00+00:00,231.0,10.14,237.0,12.27,12.09,47.59359,-54.27349
2023-04-10 08:54:00+00:00,234.0,10.62,241.0,12.85,12.09,47.59359,-54.27349
2023-04-10 09:04:00+00:00,233.0,11.54,236.0,13.28,12.09,47.59359,-54.27349
2023-04-10 09:14:00+00:00,232.0,9.56,237.0,11.24,12.01,47.59359,-54.27349
2023-04-10 09:24:00+00:00,238.0,9.82,245.0,12.0,12.01,47.59359,-54.27349
2023-04-10 09:34:00+00:00,233.0,9.65,234.0,10.76,12.01,47.59359,-54.27349
2023-04-10 09:44:00+00:00,231.0,8.71,243.0,12.28,12.01,47.59359,-54.27349
2023-04-10 09:54:00+00:00,233.0,8.04,236.0,9.76,12.01,47.59359,-54.27349
2023-04-10 10:04:00+00:00,231.0,8.7,231.0,10.18,12.01,47.59359,-54.27349
2023-04-10 10:14:00+00:00,238.0,7.92,245.0,9.94,12.41,47.59359,-54.27349
2023-04-10 10:24:00+00:00,231.0,8.64,253.0,11.42,12.41,47.59359,-54.27349
2023-04-10 10:34:00+00:00,240.0,12.91,241.0,14.42,12.41,47.59359,-54.27349
2023-04-10 10:44:00+00:00,235.0,8.52,238.0,12.7,12.41,47.59359,-54.27349
2023-04-10 10:54:00+00:00,231.0,8.47,235.0,9.88,12.41,47.59359,-54.27349
2023-04-10 11:04:00+00:00,230.0,8.66,242.0,11.64,12.41,47.59359,-54.27349
2023-04-10 11:14:00+00:00,231.0,8.53,245.0,10.15,13.21,47.59359,-54.27349
2023-04-10 11:24:00+00:00,227.0,8.75,232.0,10.33,13.21,47.59359,-54.27349
2023-04-10 11:34:00+00:00,231.0,8.7,230.0,10.08,13.21,47.59359,-54.27349
2023-04-10 11:44:00+00:00,237.0,8.58,230.0,9.9,13.21,47.59359,-54.27349
2023-04-10 11:54:00+00:00,235.0,9.07,234.0,9.91,13.21,47.59359,-54.27349
2023-04-10 12:04:00+00:00,234.0,8.5,237.0,9.84,13.21,47.59359,-54.27349
2023-04-10 12:14:00+00:00,237.0,8.5,239.0,10.1,13.53,47.59359,-54.27349
2023-04-10 12:24:00+00:00,233.0,8.3,235.0,9.85,13.53,47.59359,-54.27349
2023-04-10 12:34:00+00:00,241.0,8.23,248.0,9.45,13.53,47.59359,-54.27349
2023-04-10 12:44:00+00:00,244.0,8.0,254.0,11.63,13.53,47.59359,-54.27349
2023-04-10 12:54:00+00:00,249.0,8.51,248.0,12.16,13.53,47.59359,-54.27349
2023-04-10 13:04:00+00:00,244.0,8.29,254.0,11.89,13.53,47.59359,-54.27349
2023-04-10 13:14:00+00:00,246.0,8.33,243.0,9.54,13.68,47.59359,-54.27349
2023-04-10 13:24:00+00:00,253.0,8.25,258.0,11.64,13.68,47.59359,-54.27349
2023-04-10 13:34:00+00:00,257.0,7.28,261.0,8.41,13.68,47.59359,-54.27349
2023-04-10 13:44:00+00:00,267.0,9.91,268.0,11.16,13.68,47.59359,-54.27349
2023-04-10 13:54:00+00:00,270.0,9.46,272.0,11.07,13.68,47.59359,-54.27349
2023-04-10 14:04:00+00:00,270.0,9.78,277.0,11.05,13.68,47.59359,-54.27349
2023-04-10 14:14:00+00:00,265.0,10.2,259.0,11.84,14.4,47.59359,-54.27349
2023-04-10 14:24:00+00:00,268.0,9.15,272.0,10.34,14.4,47.59359,-54.27349
2023-04-10 14:34:00+00:00,269.0,9.03,271.0,10.55,14.4,47.59359,-54.27349
2023-04-10 14:44:00+00:00,278.0,8.51,283.0,9.48,14.4,47.59359,-54.27349
2023-04-10 14:54:00+00:00,275.0,8.33,276.0,9.74,14.4,47.59359,-54.27349
2023-04-10 15:04:00+00:00,274.0,10.19,274.0,11.43,14.4,47.59359,-54.27349
2023-04-10 15:14:00+00:00,269.0,8.45,265.0,9.56,14.16,47.59359,-54.27349
2023-04-10 15:24:00+00:00,280.0,8.12,276.0,9.46,14.16,47.59359,-54.27349
2023-04-10 15:34:00+00:00,291.0,9.34,299.0,11.38,14.16,47.59359,-54.27349
2023-04-10 15:44:00+00:00,297.0,10.5,300.0,12.83,14.16,47.59359,-54.27349
2023-04-10 15:54:00+00:00,307.0,10.06,315.0,12.74,14.16,47.59359,-54.27349
2023-04-10 16:04:00+00:00,281.0,7.73,282.0,8.99,14.16,47.59359,-54.27349
2023-04-10 16:14:00+00:00,288.0,7.22,292.0,7.9,13.6,47.59359,-54.27349
2023-04-10 16:24:00+00:00,302.0,7.7,311.0,10.54,13.6,47.59359,-54.27349
2023-04-10 16:34:00+00:00,280.0,7.33,279.0,9.5,13.6,47.59359,-54.27349
2023-04-10 16:44:00+00:00,302.0,7.19,296.0,7.96,13.6,47.59359,-54.27349
2023-04-10 16:54:00+00:00,276.0,6.55,275.0,7.1,13.6,47.59359,-54.27349
2023-04-10 17:04:00+00:00,271.0,5.94,269.0,6.45,13.6,47.59359,-54.27349
2023-04-10 17:14:00+00:00,267.0,4.81,272.0,6.28,13.92,47.59359,-54.27349
2023-04-10 17:24:00+00:00,281.0,6.03,285.0,7.04,13.92,47.59359,-54.27349
2023-04-10 17:34:00+00:00,273.0,8.77,274.0,13.51,13.92,47.59359,-54.27349
2023-04-10 17:44:00+00:00,264.0,8.95,271.0,11.65,13.92,47.59359,-54.27349
2023-04-10 17:54:00+00:00,286.0,6.55,293.0,7.54,13.92,47.59359,-54.27349
2023-04-10 18:04:00+00:00,286.0,7.93,287.0,10.2,13.92,47.59359,-54.27349
2023-04-10 18:14:00+00:00,280.0,11.51,281.0,14.47,14.24,47.59359,-54.27349
2023-04-10 18:24:00+00:00,271.0,9.76,272.0,13.55,14.24,47.59359,-54.27349
2023-04-10 18:34:00+00:00,274.0,7.97,275.0,8.87,14.24,47.59359,-54.27349
2023-04-10 18:44:00+00:00,271.0,8.18,275.0,9.54,14.24,47.59359,-54.27349
2023-04-10 18:54:00+00:00,274.0,8.31,273.0,9.03,14.24,47.59359,-54.27349
2023-04-10 19:04:00+00:00,278.0,8.02,274.0,9.1,14.24,47.59359,-54.27349
2023-04-10 19:14:01+00:00,272.0,7.54,270.0,8.63,13.84,47.59359,-54.27349
2023-04-10 19:24:01+00:00,271.0,8.04,272.0,10.43,13.84,47.59359,-54.27349
2023-04-10 19:34:01+00:00,271.0,7.95,272.0,12.61,13.84,47.59359,-54.27349
2023-04-10 19:44:01+00:00,271.0,7.53,274.0,8.14,13.84,47.59359,-54.27349
2023-04-10 19:54:01+00:00,271.0,8.32,272.0,9.23,13.84,47.59359,-54.27349
2023-04-10 20:04:01+00:00,271.0,7.87,272.0,8.58,13.84,47.59359,-54.27349
2023-04-10 20:14:00+00:00,270.0,7.65,274.0,8.32,13.76,47.59359,-54.27349
2023-04-10 20:24:00+00:00,271.0,8.07,271.0,8.7,13.76,47.59359,-54.27349
2023-04-10 20:34:00+00:00,266.0,9.6,268.0,12.68,13.76,47.59359,-54.27349
2023-04-10 20:44:00+00:00,261.0,7.68,264.0,8.55,13.76,47.59359,-54.27349
2023-04-10 20:54:00+00:00,266.0,7.4,268.0,8.26,13.76,47.59359,-54.27349
2023-04-10 21:04:00+00:00,266.0,7.52,264.0,8.63,13.76,47.59359,-54.27349
2023-04-10 21:14:00+00:00,267.0,8.95,271.0,14.23,13.53,47.59359,-54.27349
2023-04-10 21:24:00+00:00,263.0,6.91,262.0,7.6,13.53,47.59359,-54.27349
2023-04-10 21:34:00+00:00,261.0,6.71,263.0,7.54,13.53,47.59359,-54.27349
2023-04-10 21:44:00+00:00,261.0,5.43,262.0,7.08,13.53,47.59359,-54.27349
2023-04-10 21:54:00+00:00,249.0,5.36,257.0,8.14,13.53,47.59359,-54.27349
2023-04-10 22:04:00+00:00,213.0,4.11,241.0,6.05,13.53,47.59359,-54.27349
2023-04-10 22:14:00+00:00,234.0,5.03,245.0,7.6,13.05,47.59359,-54.27349
2023-04-10 22:24:00+00:00,248.0,6.41,248.0,7.66,13.05,47.59359,-54.27349
2023-04-10 22:34:00+00:00,246.0,6.15,249.0,7.44,13.05,47.59359,-54.27349
2023-04-10 22:44:00+00:00,239.0,5.88,247.0,6.72,13.05,47.59359,-54.27349
2023-04-10 22:54:00+00:00,246.0,7.78,244.0,8.51,13.05,47.59359,-54.27349
2023-04-10 23:04:00+00:00,242.0,6.85,243.0,7.75,13.05,47.59359,-54.27349
2023-04-10 23:14:00+00:00,242.0,6.42,243.0,7.45,12.49,47.59359,-54.27349
2023-04-10 23:24:00+00:00,237.0,5.46,236.0,6.1,12.49,47.59359,-54.27349
2023-04-10 23:34:00+00:00,243.0,5.92,244.0,6.65,12.49,47.59359,-54.27349
2023-04-10 23:44:00+00:00,242.0,5.36,244.0,6.13,12.49,47.59359,-54.27349
2023-04-10 23:54:00+00:00,238.0,6.38,240.0,7.53,12.49,47.59359,-54.27349
